[[{"header":{"parameterUnit":"m.s-1","parameterCategory":1,"la1":30.2991,"la2":30.254,"lo1":-89.0895,"lo2":-89.0444,"dy":0.0017,"dx":0.0017,"nx":28,"ny":28,"refTime":"2024-12-19T09:00:00:Z","depth":0,"parameterNumber":2,"parameterNumberName":"U-component_of_WINDS"},"data":[0,0,0,0,0,0,0,0,0,0,0,0,0,0,0,0,0,0,0,0,0,0,0,0,0,0,0,0,0,0,0,0,0,0,0,0,0,0,0,0,0,0,0,0,0,0,0,0,0,0,0,0,0,0,0,0,0,0,2.2738,2.2738,0,2.2811,2.2812,2.2813,2.2776,2.2775,2.2773,2.2771,2.2851,2.2855,2.2859,0,0,0,0,0,0,0,0,0,0,0,0,0,2.257,2.2573,2.2738,2.2738,2.2739,2.2811,2.2812,2.2813,2.2777,2.2774,2.2772,2.277,2.285,2.2854,2.2859,0,0,0,0,0,0,0,0,0,0,0,0,0,2.2643,2.2574,2.2737,2.273,2.273,2.2811,2.2812,2.2814,2.2777,2.2774,2.2771,2.2769,2.2848,2.2854,2.286,2.2954,0,0,2.2878,2.288,0,0,0,0,0,0,0,0,2.2639,2.2649,2.273,2.273,2.2731,2.2782,2.2782,2.2861,2.2778,2.2759,2.2771,2.2767,2.283,2.2838,2.2858,2.2958,2.2961,2.2878,2.2882,2.2884,2.2886,0,0,0,0,0,0,0,2.2634,2.2646,2.2767,2.2731,2.2732,2.2724,2.2731,2.2797,2.2811,2.2761,2.2758,2.2767,2.283,2.2852,2.286,2.2962,2.2878,2.2883,2.2887,2.2889,2.3145,2.3148,0,0,0,0,0,0,2.2629,2.2642,2.2765,2.2769,2.2677,2.273,2.2738,2.2768,2.281,2.2813,2.277,2.2765,2.2844,2.2853,2.2862,2.2976,2.2884,2.289,2.2893,2.3141,2.3145,2.3149,0,0,0,0,0,0,2.2625,2.264,2.2762,2.2705,2.272,2.2735,2.277,2.2771,2.2793,2.2816,2.2819,2.279,2.2842,2.2854,2.2931,2.2978,2.2892,2.2898,2.3138,2.3143,2.3147,2.3204,0,0,0,0,0,0,2.262,2.2639,2.2674,2.2706,2.2723,2.2828,2.2773,2.2775,2.2803,2.2798,2.2836,2.2839,2.284,2.2923,2.2937,2.2985,2.2902,2.3133,2.314,2.3146,2.3198,2.321,2.3221,0,0,0,0,0,2.2614,2.2688,2.2676,2.2691,2.2767,2.2831,2.2841,2.2839,2.2807,2.2843,2.2858,2.2838,2.2971,2.2931,2.2947,2.2997,2.313,2.3138,2.3145,2.3193,2.3208,2.322,0,0,0,0,0,0,2.2662,2.2692,2.2679,2.2764,2.2795,2.2825,2.287,2.2855,2.2897,2.2891,2.2889,2.2898,2.2978,2.2995,2.2951,2.3091,2.3046,2.3057,2.3077,2.3091,2.3102,2.3096,2.2907,0,0,0,0,0,2.2682,2.273,2.2754,2.2827,2.2843,2.2854,2.2882,2.2878,2.2911,2.2924,2.2945,2.2979,2.3028,2.306,2.3107,2.32,2.3209,2.3243,2.3254,2.3263,2.3273,2.3324,2.334,2.3173,2.3173,2.3173,0,0,2.2725,2.2747,2.2778,2.2837,2.2861,2.2912,2.2865,2.2922,2.296,2.2933,2.3007,2.3024,2.3061,2.3147,2.3186,2.3164,2.3321,2.3273,2.328,2.3284,2.3333,2.3349,2.3363,2.3178,2.3177,2.3176,0,0,2.2828,2.285,2.2913,2.2937,2.2973,2.298,2.2995,2.3027,2.3036,2.311,2.3091,2.3138,2.3223,2.3251,2.3276,2.3391,2.3375,2.3407,2.3466,2.3516,2.3529,2.354,2.3582,2.3597,2.3416,2.3416,2.3416,0,2.2877,2.2952,2.2948,2.3005,2.3033,2.3009,2.3074,2.3099,2.3149,2.3169,2.3144,2.325,2.3274,2.3366,2.3394,2.3415,2.3433,2.3402,2.3527,2.3539,2.3549,2.3589,2.3605,2.342,2.3419,2.3419,2.3419,0,2.301,2.3063,2.311,2.3157,2.319,2.3251,2.3258,2.3292,2.3286,2.3296,2.3372,2.34,2.3452,2.3473,2.3468,2.3566,2.3551,2.3526,2.3481,2.3569,2.3606,2.3621,2.3425,2.3424,2.3422,2.3422,0,0,2.3145,2.3189,2.3207,2.3228,2.3266,2.3308,2.3369,2.3418,2.3448,2.3483,2.3535,2.3608,2.3585,2.3614,2.3612,2.3656,2.3746,2.3626,2.3627,2.3648,2.3856,2.3874,2.3891,2.3736,2.3738,2.3741,2.3852,0,2.3252,2.3356,2.3354,2.3452,2.3501,2.348,2.3533,2.3563,2.3575,2.3619,2.3632,2.3684,2.365,2.3667,2.371,2.3726,2.3788,2.3718,2.3785,2.3787,2.3776,2.391,2.393,2.4034,2.3867,2.3869,2.3871,0,2.3389,2.3428,2.353,2.3561,2.3582,2.3629,2.3675,2.3717,2.3752,2.3757,2.3789,2.3781,2.3844,2.3797,2.3885,2.3838,2.3865,2.3878,2.3882,2.3888,2.3834,2.392,2.4067,2.4082,2.3894,2.3892,2.389,0,2.3478,2.3555,2.3626,2.3646,2.3684,2.3718,2.3736,2.3767,2.3797,2.3838,2.3858,2.3906,2.3932,2.397,2.3976,2.3941,2.4065,2.4018,2.4072,2.4072,2.4099,2.4097,2.4252,2.4117,2.4116,2.4116,2.4116,0,2.3596,2.366,2.3667,2.371,2.3781,2.378,2.385,2.3866,2.3894,2.3941,2.3927,2.3973,2.3977,2.4024,2.4029,2.4102,2.4114,2.4121,2.4121,2.4122,2.4121,2.414,2.4133,2.412,2.4119,2.4119,2.4118,0,2.3707,2.3714,2.379,2.382,2.3829,2.388,2.3906,2.3949,2.3959,2.4019,2.4034,2.405,2.4105,2.4114,2.4179,2.4182,2.4269,2.4262,2.4257,2.4256,2.431,2.4305,2.4482,2.4506,2.4355,2.4357,2.4358,0,2.3782,2.383,2.3865,2.3895,2.3914,2.3963,2.3993,2.3994,2.4027,2.407,2.4108,2.4161,2.4203,2.4292,2.4311,2.4361,2.4355,2.4414,2.4363,2.4362,2.4356,2.4353,2.4359,2.4424,2.4425,2.4427,2.4428,0,2.3915,2.3916,2.3959,2.4004,2.404,2.4076,2.411,2.4136,2.4142,2.418,2.4235,2.4268,2.4333,2.4387,2.4437,2.4457,2.4444,2.4444,2.4459,2.446,2.4455,2.4459,2.4284,2.444,2.4438,2.4438,2.4437,2.4437,2.401,2.4051,2.4082,2.4132,2.4157,2.4189,2.4231,2.4245,2.4291,2.4343,2.4342,2.4403,2.4437,2.4502,2.4526,2.4575,2.4556,2.4578,2.4584,2.4589,2.4594,2.4447,2.4584,2.4584,2.4583,2.4583,2.4583,0,2.4142,2.416,2.4206,2.4253,2.4292,2.4275,2.4312,2.4346,2.4399,2.4432,2.4474,2.4538,2.459,2.4613,2.4664,2.4699,2.4694,2.4712,2.471,2.4715,2.4608,2.459,2.4715,2.4715,2.4715,2.4715,2.4715,2.4715,2.4215,2.4285,2.429,2.4373,2.4392,2.445,2.4473,2.4503,2.4529,2.46,2.4643,2.4657,2.4686,2.474,2.4787,2.4793,2.4812,2.4833,2.4836,2.4736,2.4722,2.471,2.4692,2.4837,2.4838,2.4939,2.494,2.4941]},{"header":{"parameterUnit":"m.s-1","parameterCategory":1,"la1":30.2991,"la2":30.254,"lo1":-89.0895,"lo2":-89.0444,"dy":0.0017,"dx":0.0017,"nx":28,"ny":28,"refTime":"2024-12-19T09:00:00:Z","depth":0,"parameterNumber":3,"parameterNumberName":"V-component_of_WINDS"},"data":[0,0,0,0,0,0,0,0,0,0,0,0,0,0,0,0,0,0,0,0,0,0,0,0,0,0,0,0,0,0,0,0,0,0,0,0,0,0,0,0,0,0,0,0,0,0,0,0,0,0,0,0,0,0,0,0,0,0,-1.6435,-1.6436,0,-1.6524,-1.6525,-1.6526,-1.6555,-1.6555,-1.6554,-1.6554,-1.6646,-1.6649,-1.6652,0,0,0,0,0,0,0,0,0,0,0,0,0,-1.6293,-1.6295,-1.6435,-1.6436,-1.6437,-1.6524,-1.6525,-1.6526,-1.6555,-1.6555,-1.6554,-1.6554,-1.6645,-1.6649,-1.6652,0,0,0,0,0,0,0,0,0,0,0,0,0,-1.6365,-1.6296,-1.6435,-1.6462,-1.6465,-1.6523,-1.6525,-1.6526,-1.6555,-1.6555,-1.6554,-1.6554,-1.6644,-1.6648,-1.6653,-1.669,0,0,-1.6665,-1.6667,0,0,0,0,0,0,0,0,-1.6361,-1.637,-1.6457,-1.646,-1.6464,-1.6528,-1.6509,-1.6581,-1.6555,-1.6521,-1.6554,-1.6553,-1.6607,-1.6615,-1.6633,-1.6695,-1.6699,-1.6666,-1.6668,-1.667,-1.6671,0,0,0,0,0,0,0,-1.6356,-1.6367,-1.647,-1.6458,-1.6462,-1.6471,-1.648,-1.6523,-1.6567,-1.6524,-1.6526,-1.6536,-1.6609,-1.6628,-1.6635,-1.67,-1.6666,-1.6669,-1.6672,-1.6674,-1.6799,-1.68,0,0,0,0,0,0,-1.6346,-1.6362,-1.6467,-1.6473,-1.641,-1.6474,-1.6484,-1.6508,-1.6566,-1.6574,-1.6537,-1.6537,-1.6622,-1.663,-1.6638,-1.6688,-1.667,-1.6674,-1.6677,-1.6799,-1.68,-1.68,0,0,0,0,0,0,-1.6343,-1.6355,-1.6464,-1.6418,-1.6433,-1.6477,-1.6503,-1.651,-1.6529,-1.6576,-1.6584,-1.6548,-1.6621,-1.6632,-1.6678,-1.6691,-1.6676,-1.668,-1.6798,-1.6799,-1.68,-1.6786,0,0,0,0,0,0,-1.6339,-1.6354,-1.6368,-1.6418,-1.6435,-1.6501,-1.6504,-1.6512,-1.6536,-1.6538,-1.6589,-1.6596,-1.6622,-1.6671,-1.6682,-1.6697,-1.6683,-1.6797,-1.6798,-1.68,-1.6785,-1.6786,-1.6787,0,0,0,0,0,-1.6334,-1.636,-1.6369,-1.6381,-1.6453,-1.6501,-1.6511,-1.6539,-1.6537,-1.6552,-1.6583,-1.6595,-1.6688,-1.6675,-1.6688,-1.6704,-1.6796,-1.6798,-1.6799,-1.6785,-1.6786,-1.6787,0,0,0,0,0,0,-1.6311,-1.6367,-1.6377,-1.6421,-1.6456,-1.6506,-1.6526,-1.6539,-1.6576,-1.6576,-1.661,-1.6621,-1.6664,-1.6689,-1.6674,-1.6745,-1.6743,-1.6747,-1.6727,-1.6729,-1.673,-1.6723,-1.6687,0,0,0,0,0,-1.6311,-1.6344,-1.6392,-1.6426,-1.6443,-1.6481,-1.6503,-1.6522,-1.656,-1.6575,-1.6608,-1.6645,-1.6683,-1.6707,-1.6744,-1.6789,-1.6801,-1.6806,-1.6807,-1.6808,-1.6811,-1.6838,-1.6842,-1.6806,-1.6806,-1.6806,0,0,-1.6311,-1.6346,-1.6365,-1.6422,-1.6452,-1.6486,-1.6494,-1.653,-1.6556,-1.6581,-1.6626,-1.6651,-1.6695,-1.674,-1.6762,-1.6762,-1.6824,-1.681,-1.681,-1.6814,-1.684,-1.6844,-1.6847,-1.6808,-1.6807,-1.6807,0,0,-1.633,-1.6359,-1.6391,-1.6421,-1.6465,-1.6491,-1.6498,-1.6547,-1.6565,-1.661,-1.663,-1.6662,-1.6726,-1.6757,-1.6781,-1.6812,-1.6826,-1.6823,-1.6829,-1.6855,-1.6858,-1.686,-1.6873,-1.6877,-1.6827,-1.6827,-1.6827,0,-1.6325,-1.6377,-1.6406,-1.6442,-1.6467,-1.649,-1.6524,-1.6551,-1.6606,-1.6623,-1.6622,-1.6704,-1.6735,-1.6789,-1.6796,-1.6815,-1.6825,-1.6818,-1.6855,-1.6858,-1.6861,-1.6873,-1.6877,-1.6826,-1.6826,-1.6826,-1.6826,0,-1.6369,-1.6405,-1.6426,-1.6478,-1.6506,-1.654,-1.6575,-1.66,-1.6616,-1.6642,-1.6689,-1.6727,-1.6773,-1.6787,-1.6804,-1.6844,-1.6843,-1.6848,-1.6847,-1.6863,-1.6875,-1.688,-1.6826,-1.6826,-1.6826,-1.6826,0,0,-1.6375,-1.6444,-1.6451,-1.6475,-1.6527,-1.6556,-1.6592,-1.6637,-1.6658,-1.6695,-1.6727,-1.6781,-1.6786,-1.6813,-1.6834,-1.6856,-1.6881,-1.6859,-1.6861,-1.6863,-1.6929,-1.6925,-1.693,-1.689,-1.6891,-1.6892,-1.6925,0,-1.6401,-1.6466,-1.6494,-1.6546,-1.6581,-1.6604,-1.6636,-1.6672,-1.6697,-1.6731,-1.6759,-1.6798,-1.6801,-1.6818,-1.6841,-1.6873,-1.6895,-1.6871,-1.6921,-1.6922,-1.691,-1.6936,-1.6932,-1.6962,-1.693,-1.6931,-1.6932,0,-1.644,-1.6477,-1.6533,-1.6581,-1.6597,-1.6625,-1.6669,-1.67,-1.6742,-1.6759,-1.679,-1.6809,-1.685,-1.6845,-1.6902,-1.6885,-1.6907,-1.6926,-1.6928,-1.6934,-1.6928,-1.6944,-1.6972,-1.6977,-1.6939,-1.6939,-1.6938,0,-1.644,-1.6504,-1.6546,-1.6567,-1.6624,-1.6643,-1.6668,-1.6709,-1.6734,-1.6773,-1.679,-1.6833,-1.6857,-1.689,-1.6922,-1.6915,-1.6976,-1.6974,-1.6992,-1.6991,-1.7004,-1.7003,-1.7037,-1.7017,-1.7017,-1.7017,-1.7017,0,-1.6467,-1.65,-1.6547,-1.6573,-1.6612,-1.6644,-1.6682,-1.6709,-1.6745,-1.6777,-1.68,-1.6831,-1.687,-1.6905,-1.693,-1.6974,-1.6984,-1.7,-1.7006,-1.6998,-1.6996,-1.7014,-1.7013,-1.7018,-1.7018,-1.7017,-1.7017,0,-1.6474,-1.6506,-1.6554,-1.6604,-1.6618,-1.6644,-1.6688,-1.6715,-1.6742,-1.6783,-1.6794,-1.6837,-1.688,-1.6914,-1.697,-1.6987,-1.7033,-1.704,-1.7019,-1.7023,-1.704,-1.7038,-1.7087,-1.7096,-1.7068,-1.7069,-1.7069,0,-1.6489,-1.6515,-1.6568,-1.6592,-1.6616,-1.6653,-1.668,-1.6713,-1.6739,-1.6789,-1.681,-1.6855,-1.6893,-1.696,-1.6997,-1.7041,-1.7049,-1.7063,-1.7056,-1.7048,-1.7051,-1.7049,-1.7053,-1.7064,-1.7064,-1.7064,-1.7064,0,-1.6512,-1.6528,-1.6564,-1.6607,-1.6638,-1.6673,-1.671,-1.6727,-1.6767,-1.6797,-1.6841,-1.687,-1.6928,-1.6972,-1.702,-1.7047,-1.7063,-1.7066,-1.7073,-1.7066,-1.7053,-1.7062,-1.7023,-1.7065,-1.7065,-1.7065,-1.7065,-1.7065,-1.6525,-1.655,-1.6592,-1.6632,-1.6663,-1.6696,-1.6724,-1.6755,-1.6792,-1.6841,-1.6859,-1.6905,-1.6947,-1.7013,-1.704,-1.7077,-1.7078,-1.7088,-1.709,-1.7093,-1.7092,-1.7047,-1.7086,-1.7086,-1.7086,-1.7086,-1.7086,0,-1.6551,-1.6579,-1.6616,-1.6666,-1.6698,-1.671,-1.6751,-1.6777,-1.6817,-1.6855,-1.6892,-1.6943,-1.6987,-1.7027,-1.7073,-1.7095,-1.7104,-1.7106,-1.7106,-1.7112,-1.7088,-1.7078,-1.7099,-1.7099,-1.7099,-1.7099,-1.7099,-1.7099,-1.6568,-1.6611,-1.6632,-1.6691,-1.672,-1.6764,-1.6787,-1.6818,-1.6849,-1.6905,-1.6942,-1.6967,-1.7007,-1.7056,-1.7097,-1.7108,-1.7124,-1.7125,-1.7138,-1.7115,-1.7113,-1.7112,-1.7102,-1.7128,-1.7128,-1.7159,-1.7159,-1.7159]}]]